Location: *
(42.9144°N, 0.6925°E)
Time: 02:55:20
(UTC+00:00)

Daily predictions for brighter satellites

Satellite Brightness Start Highest point End
(mag) Time Altitude Azimuth Time Altitude Azimuth Time Altitude Azimuth
Resurs 1-4 Rocket 4.4 01:50:38 10° N 01:51:57 18° N 01:51:57 18° N
CZ-2D R/B 4.4 01:53:51 10° N 01:55:14 18° N 01:55:14 18° N
SJ 16-02 4.5 02:02:53 10° NNE 02:02:59 10° NNE 02:02:59 10° NNE
Lacrosse 5 4.0 02:13:50 22° NNE 02:13:50 22° NNE 02:15:46 10° NE
ARIANE 5 R/B 4.0 02:22:17 10° NNE 02:25:30 32° ENE 02:25:30 32° ENE
NOSS 3-3 (A) 4.4 02:34:42 56° ENE 02:34:42 56° ENE 02:40:01 10° NE
NOSS 3-3 (C) 4.4 02:34:49 55° ENE 02:34:49 55° ENE 02:40:06 10° NE
USA 267 3.5 02:28:11 10° NE 02:34:08 62° ESE 02:34:08 62° ESE
ADEOS II 3.5 02:42:33 10° N 02:45:20 31° N 02:45:20 31° N
ATLAS 2AS CENTAUR R/B 4.4 02:42:36 10° NNW 02:49:14 32° NE 02:55:27 10° E
IDEFIX/ARIANE 42P 3.2 02:46:26 10° NNE 02:51:13 54° E 02:51:13 54° E
BREEZE-M DEB (TANK) 4.1 02:51:05 63° S 02:52:02 69° SE 03:12:38 10° ENE
Cosmos 1697 Rocket 4.2 02:56:36 26° NNW 02:56:36 26° NNW 02:59:44 10° N
Cosmos 1980 Rocket 3.0 03:02:24 41° NNW 03:02:24 41° NNW 03:06:32 10° NNE
Cosmos 2263 Rocket 2.2 03:00:19 10° NNW 03:06:01 78° ENE 03:11:42 10° SSE
USA 234 4.0 03:02:49 10° ESE 03:09:03 51° NNE 03:15:20 10° NW
Cosmos 2322 Rocket 3.0 03:08:23 39° SSE 03:09:49 47° ESE 03:15:16 10° NE
Cosmos 1666 4.3 03:13:55 10° N 03:17:25 34° ENE 03:18:11 31° ESE
CZ-2D R/B 4.5 03:14:44 10° NNE 03:17:38 43° N 03:17:38 43° N
Cosmos 1812 4.2 03:21:35 32° NNE 03:21:35 32° NNE 03:23:45 10° N
SL-16 R/B 2.3 03:20:04 58° S 03:21:04 72° ESE 03:26:44 10° NNE
Cosmos 1934 Rocket 4.2 03:16:09 10° NNW 03:20:55 49° NW 03:20:55 49° NW
CZ-3B R/B 3.8 03:21:32 24° NNW 03:22:11 25° N 03:28:40 10° NE
Cosmos 1536 4.4 03:25:59 10° N 03:29:46 35° ENE 03:33:31 10° SE
Cosmos 1238 Rocket 4.1 03:24:29 10° NNW 03:30:01 49° WNW 03:30:01 49° WNW
Spot 4 Rocket 3.9 03:28:56 10° N 03:34:04 69° WNW 03:34:17 68° W
Cosmos 1898 Rocket 3.5 03:29:22 10° NNW 03:34:39 81° ENE 03:39:57 10° SSE
CZ-2C R/B 3.6 03:29:45 10° NNE 03:34:41 44° E 03:39:38 10° S
ASTEX 1 4.1 03:34:51 10° N 03:38:38 40° NW 03:38:38 40° NW
Cosmos 1869 Rocket 4.3 03:37:54 10° NNW 03:40:47 40° NNW 03:40:47 40° NNW
Cosmos 967 Rocket 4.5 03:40:09 38° SSW 03:42:50 83° ESE 03:49:17 10° NE
MSX 3.7 03:37:52 10° N 03:43:39 76° WNW 03:45:54 39° SSW
Landsat 5 3.6 03:41:42 10° SSE 03:46:12 85° ENE 03:50:41 10° NNW
Cosmos 2228 Rocket 4.3 03:48:02 29° NW 03:48:02 29° NW 03:50:43 10° N
IRIDIUM 104 4.2 03:41:24 10° N 03:46:39 80° W 03:50:24 19° S
PSLV R/B 4.0 03:44:20 10° NNE 03:48:29 58° E 03:51:00 22° S
Meteor 1-5 Rocket 4.1 03:48:14 10° NNW 03:53:26 53° W 03:56:00 29° SSW
CZ-4C R/B 4.0 03:55:01 36° NNW 03:55:01 36° NNW 03:57:14 10° NNW
Cosmos 1153 Rocket 4.4 03:48:10 10° N 03:54:33 78° W 04:00:49 10° S
Cosmos 1605 Rocket 4.2 03:48:39 10° NNW 03:54:48 50° W 03:58:55 21° SSW
Lacrosse 5 3.8 03:53:01 15° NW 03:54:57 19° NNW 03:58:30 10° NNE
Gbstr 26 Del rocket 4.3 03:49:31 20° WNW 03:55:22 66° SW 04:02:30 10° SE
Cosmos 1937 Rocket 3.4 03:50:33 10° NNW 03:55:43 88° ENE 04:00:52 10° SSE
IRIDIUM 114 4.2 03:50:36 10° N 03:55:47 66° W 03:59:31 19° SSW
H-2A R/B 2.0 03:52:22 10° S 03:56:46 77° WSW 04:01:16 10° NNW
ERBS 4.3 03:58:34 19° NNW 03:58:34 19° NNW 04:00:43 10° NNE
Meteor 1-10 Rocket 4.4 03:56:19 37° SW 03:58:22 55° WNW 04:04:09 10° N
X-37B 1.8 03:59:50 33° SSE 03:59:50 33° SSE 04:01:54 10° SE
Cosmos 841 Rocket 3.6 03:56:29 20° S 04:00:08 76° ESE 04:05:25 10° NNE
CSL-04 DEB 4.4 03:56:38 10° S 04:00:56 71° WSW 04:05:19 10° NNW
FALCON 9 DEB 3.8 04:01:05 42° NNW 04:01:05 42° NNW 04:04:18 10° NE
ERS-2 2.4 03:58:24 10° SSE 04:02:02 66° ENE 04:05:41 10° N
USA 32 3.9 03:58:16 10° N 04:03:34 81° W 04:08:48 10° S
Cosmos 1814 Rocket 4.3 03:59:35 12° S 04:04:22 65° ESE 04:09:36 10° NNE
SL-4 R/B 2.5 04:03:35 42° W 04:04:50 58° NNW 04:09:33 10° NE
IRIDIUM 103 4.4 03:59:49 10° NNW 04:04:54 54° W 04:08:38 18° SSW
Cosmos 1743 4.4 04:01:46 10° N 04:05:17 34° ENE 04:08:46 10° SE
ARIANE 5 R/B 3.6 04:01:54 10° N 04:05:49 25° WNW 04:05:49 25° WNW
Cosmos 1763 Rocket 3.7 04:04:26 37° WSW 04:06:06 51° WNW 04:11:17 10° N
Cosmos 2333 Rocket 4.1 04:02:21 10° SSE 04:07:16 30° ESE 04:12:12 10° NE
CZ-2C R/B 3.5 04:04:56 10° N 04:08:05 35° WNW 04:08:05 35° WNW
NOSS 3-4 (A) 3.9 04:10:01 10° NW 04:17:08 86° SW 04:24:59 10° SSE
NOSS 3-4 (C) 3.9 04:10:07 10° NW 04:17:15 87° SW 04:25:06 10° SSE
USA 267 3.8 04:11:22 10° NE 04:17:32 46° NNW 04:21:28 22° W
CZ-4B R/B 1.9 04:18:41 10° SSE 04:21:48 58° ENE 04:25:01 10° N
Cosmos 540 Rocket 3.4 04:20:36 17° SSW 04:24:34 67° WNW 04:29:45 10° NNE
ADEOS Rocket 3.0 04:19:17 10° SSE 04:26:03 81° WSW 04:32:08 10° NNW
ADEOS 3.8 04:20:56 10° NNE 04:26:09 71° ESE 04:31:21 10° S
IDEFIX/ARIANE 42P 3.9 04:26:57 10° NNW 04:30:47 21° WNW 04:32:01 19° W
PAYLOAD A 4.1 04:27:02 10° N 04:31:32 46° WNW 04:35:28 13° SW
Cosmos 1727 Rocket 4.5 04:26:59 15° SW 04:31:55 40° WNW 04:37:51 10° N
Cosmos 2100 Rocket 4.0 04:27:46 10° NNW 04:34:02 62° W 04:40:17 10° S
Cosmos 2360 Rocket 2.2 04:29:26 12° SW 04:34:43 68° WNW 04:40:23 10° NNE
Cosmos 1570 Rocket 4.2 04:31:43 14° SW 04:36:16 55° WNW 04:41:32 10° NNE
FENGYUN 3A 4.0 04:31:57 10° NNE 04:37:21 71° ESE 04:42:44 10° S
deb Chang Zheng 4 3.5 04:34:26 10° NNE 04:38:44 89° WNW 04:43:00 10° SSW
SAR-Lupe-4 3.6 04:35:22 10° SSE 04:38:56 81° ENE 04:42:32 10° N
ATLAS 2AS CENTAUR R/B 2.7 04:33:31 10° NW 04:40:56 75° WSW 04:47:42 10° SSE
Cosmos 1459 Rocket 3.9 04:35:02 10° NNW 04:40:58 58° W 04:46:52 10° S
Cosmos 1802 Rocket 3.9 04:36:52 10° NNW 04:43:03 70° W 04:49:17 10° S
Cosmos 1484 Rocket 2.9 04:39:54 10° NNE 04:43:56 86° ESE 04:47:57 10° SSW
Cosmos 44 Rocket 3.7 04:42:18 17° WSW 04:45:35 43° NW 04:50:15 10° NNE
Cosmos 1908 Rocket 3.9 04:41:55 10° N 04:46:23 72° E 04:50:50 10° SSE
Cosmos 1980 Rocket 4.3 04:46:20 10° NW 04:46:26 10° NW 04:46:33 10° NW
Cosmos 1703 Rocket 4.2 04:42:22 10° S 04:46:37 58° E 04:50:53 10° NNE
Cosmos 2263 Rocket 3.6 04:46:08 10° WNW 04:49:46 15° WSW 04:52:15 10° SW
Okean 1 3.2 04:45:25 10° S 04:49:28 81° W 04:53:32 10° N
Okean 1-7 3.6 04:47:40 10° S 04:51:50 59° E 04:56:01 10° NNE
USA 234 3.4 04:45:37 10° SSE 04:52:00 57° SW 04:58:26 10° NW
Cosmos 1666 4.3 04:50:23 10° NW 04:52:40 15° W 04:52:53 15° W
Cosmos 1515 3.7 04:48:55 10° S 04:52:42 83° E 04:56:30 10° N
Cosmos 2123 Rocket 4.0 04:47:14 10° SSW 04:53:28 78° W 04:59:48 10° N
Cosmos 2322 Rocket 3.2 04:50:14 14° WSW 04:54:04 28° NW 04:58:58 10° N
Cosmos 1844 Rocket 2.7 04:48:57 10° NNW 04:54:33 66° WSW 05:00:09 10° SSE
BREEZE M DEB (TANK) 4.1 04:45:36 10° WNW 04:54:36 31° WSW 04:58:09 10° S
Meteor 1-31 Rocket 2.7 04:52:37 10° N 04:56:28 84° WNW 05:00:20 10° SSW
Cosmos 2278 Rocket 4.3 04:51:43 10° N 04:56:36 29° NE 05:01:28 10° ESE
SAR-Lupe-1 4.0 04:54:25 10° S 04:57:56 61° WSW 05:01:30 10° NNW
Cosmos 1844 3.6 04:54:33 10° NNW 05:00:07 73° WSW 05:05:38 10° SSE
Cosmos 1437 Rocket 2.9 04:56:35 10° SSW 05:00:15 47° WNW 05:04:00 10° N
USA 276 2.4 04:57:58 10° WNW 05:01:11 66° NNE 05:04:22 10° ESE
SL-16 R/B 3.6 05:01:58 11° W 05:05:45 20° NW 05:09:54 10° N
Cosmos 1536 4.3 05:03:11 10° NW 05:05:52 17° W 05:08:33 10° SW
Meteor 2-9 Rocket 4.2 05:00:46 10° N 05:06:17 86° E 05:11:37 10° S
CZ-4B R/B 2.8 05:05:35 10° NNE 05:09:13 77° ESE 05:12:46 10° S
Cosmos 1733 Rocket 4.1 05:06:21 10° NW 05:09:46 23° W 05:13:11 10° SW
Cosmos 372 Rocket 4.3 05:04:58 10° NW 05:09:47 41° WSW 05:14:32 10° S
CZ-2C R/B 3.6 05:08:29 10° NNW 05:12:38 25° WNW 05:16:47 10° WSW
CZ-4B R/B 4.2 05:08:45 10° N 05:13:04 56° WNW 05:17:26 10° SSW
Cosmos 2242 Rocket 3.7 05:09:45 10° SSW 05:14:02 52° WNW 05:18:22 10° N
Cosmos 1689 Rocket 2.0 05:11:47 10° S 05:14:42 60° WSW 05:17:39 10° NNW
Intercosmos 25 3.9 05:11:44 10° SW 05:15:10 30° W 05:18:05 10° NNW
SKYMED 2 3.6 05:12:30 10° SSE 05:16:51 83° WSW 05:21:13 10° NNW
ALOS 2.6 05:12:47 10° N 05:17:15 47° WNW 05:21:43 10° SW
Meteor 2-11 Rocket 4.5 05:17:26 10° N 05:23:36 86° W 05:29:42 10° S
Cosmos 2285 Rocket 4.3 05:17:20 10° NNW 05:23:47 81° ENE 05:30:14 10° SSE
